Showing default

COSMOS 2579, 61730

Orbit data source: Space-Track

COSMOS 2579, 61730 is a payload satellite owned by VVKO VKS (CIS) in SSO that was launched on Thu, 31 Oct 2024 UTC via a SOYUZ-2-1A launch vehicle from the Plesetsk Missile And Space Complex (PKMTR). Payload-class satellites include a variety of spacecraft equipped with specific instruments for various scientific and technological missions. These include communications satellites like Starlink; space stations such as the ISS; scientific satellites like the Hubble; Earth observation satellites from companies like Planet Labs, Umbra, and HawkEye 360; GPS; miniature CubeSats for education and research; and military/defense satellites.

Loading next visibility...
Identifier
61730, 2024-197A
Orbit
SSO
Country
Flag of CISCIS
Related business
Manufacturer
Arsenal
Mission
Operational Defense Imaging
Bus & Motor
BARS, AOCS
Mass
3,700 kg wet, ~3,500 kg dry
Launch date (UTC)
2024-10-31 (1 year ago)
Launch vehicle
SOYUZ-2-1A
Launch site
Plesetsk Missile And Space Complex (PKMTR)
Object type
Payload
Rocket body
Debris
Shape & HBR
Cyl + 2 Pan, 5.0 m
Radar Cross Section
20.881 m², Large (>1 m²)

Expand to show TLE details & history
Last TLE update: 5 hours ago

TLE from 5 hours ago
0 COSMOS 2579
1 61730U 24197A   25310.97320816  .00006474  00000-0  26340-3 0  9996
2 61730  97.5535 227.8680 0004260  35.8355 324.3167 15.24864901 56600
Epoch: 2025-11-06T23:21Z
TLE epoch observation values (Epoch: 2025-11-06T23:21:25.185Z)
Latitude
-0.00004°
Longitude
-168.91078°
Altitude
491.907 km
Speed
7.62 km/s
True Right ascension
15h 11m 28s
True Declination
0° 00' 00"
Sunlit
Object was in daylight at epoch
Visualization orbit readout
Latitude
Unknown
Longitude
Unknown
Altitude
Unknown
Speed
Unknown
Apparent Right ascension
Unknown
Apparent Declination
Unknown
Sunlit
N/A
Visualization observer readout
Local Sidereal Time
00:33:10
Azimuth
Unknown
Elevation
Unknown
Doppler factor
Unknown
Orbital elements
Apogee altitude
491.082 km
Perigee altitude
485.232 km
Semi-major axis
6,866.294 km
Eccentricity
0.00043
Inclination
97.5535°
RAAN
227.868°
Arg. of periapsis
35.8355°
True anomaly
324.28821°
Mean anomaly
324.3167°
Eccentric anomaly
324.30246°
Mean motion
3.81469 °/min
Orbital period
94.37 mins
BSTAR
0.0002634
Loading maneuver chart data...
Computing Atmospheric mass density...
Loading historical data...
Loading historical data...
Loading historical data...
Loading historical data...
Loading historical data...
Loading historical data...
Loading historical data...
Other satellites on launch #197 in the year 2024 (2024-10-31 UTC)

Documentation

Showing up to 5 results
|